Lid_Strength_Index
1 1 1 1 1 1 0 0 0 0 0 0 0 0 -0 -0 0 3 7 4 3 -2 1 5 6 6 7 7 7 9 13 14 13 12 12 11 11 10 10 11 10 9 10 10 9
2 2 1 1 1 1 1 1 1 1 0 0 0 0 0 -0 4 6 1 -2 -2 -2 5 7 8 8 9 8 8 10 14 13 10 11 12 11 11 11 11 12 11 10 10 9 9
2 2 2 2 2 2 1 1 1 1 1 0 0 0 0 1 7 7 -2 -3 -2 -1 5 6 7 7 10 9 9 10 12 10 9 9 10 10 11 10 11 11 11 10 10 10 11
2 2 2 2 2 2 2 1 1 1 1 1 1 0 0 3 13 6 -2 -2 -2 4 6 7 8 9 10 10 8 11 9 9 8 9 10 10 10 11 11 8 9 9 9 10 11
2 2 2 2 2 2 2 2 2 1 1 1 1 0 3 8 8 3 -2 -1 3 5 7 8 9 9 11 10 10 11 10 9 8 9 10 9 10 11 10 9 9 9 10 10 10
2 2 2 2 2 2 2 2 2 1 1 1 1 1 7 12 6 3 4 5 6 6 7 8 8 8 9 10 11 11 10 10 9 9 10 10 11 11 9 10 9 9 10 10 9
2 2 2 2 2 2 2 2 2 2 2 1 1 2 7 10 6 6 6 7 7 7 9 8 8 9 9 10 9 10 11 11 10 10 10 10 12 12 8 10 10 10 10 10 9
2 2 2 2 2 2 2 2 1 2 1 1 1 5 11 7 7 7 8 8 8 8 8 8 8 8 9 9 10 13 13 14 12 11 11 10 13 10 10 10 10 10 10 10 10
2 3 3 2 2 2 2 2 1 1 1 2 6 8 11 5 8 7 8 8 8 8 8 7 8 10 10 13 15 15 17 16 13 11 11 12 13 10 10 11 11 11 11 10 10
3 3 3 3 3 2 2 2 2 3 4 4 6 11 10 10 8 7 8 8 9 9 10 10 11 13 13 15 18 17 17 16 15 13 13 14 13 11 10 12 12 12 12 11 11
3 3 3 3 3 2 4 8 11 12 10 12 12 11 10 8 7 8 8 9 9 11 14 12 15 16 14 13 13 15 16 16 14 12 13 13 13 11 10 11 12 11 10 10 11
2 3 2 2 2 2 7 9 10 10 14 10 11 10 9 8 10 9 8 11 12 14 13 15 16 13 13 14 14 14 15 15 13 12 14 14 14 13 12 10 10 10 10 10 9
2 2 2 2 3 6 9 9 7 8 13 12 10 11 11 9 11 10 9 11 13 14 14 14 14 12 13 14 15 15 15 15 15 14 15 16 16 16 14 11 10 9 9 9 9
2 2 3 3 5 7 9 8 8 9 18 16 13 11 10 10 13 10 10 12 13 14 14 15 12 13 14 15 13 16 13 13 15 17 18 16 20 18 15 14 12 11 10 9 9
2 2 2 3 7 7 7 7 8 11 20 13 13 9 10 13 13 12 11 11 14 14 14 15 15 15 15 14 13 14 14 15 16 18 18 18 19 18 15 16 13 11 11 10 9
2 2 3 4 6 6 6 8 10 17 20 15 13 13 14 13 13 13 12 11 12 14 14 14 13 13 13 13 14 14 15 16 17 18 21 18 18 17 18 15 14 12 11 10 9
2 3 4 3 6 6 7 11 14 19 14 15 16 14 15 15 14 14 15 15 16 18 19 16 15 14 13 15 14 14 16 20 22 22 20 17 18 16 14 14 13 12 11 10 10
3 3 4 4 5 5 7 10 17 14 16 13 14 14 15 14 14 14 16 17 15 16 18 18 17 15 13 13 15 15 15 19 22 21 18 18 20 16 13 11 11 11 11 11 13
4 3 4 4 4 5 8 14 14 13 11 12 12 14 16 14 14 15 16 16 15 14 16 18 17 15 14 13 12 16 17 14 18 23 22 18 16 13 14 14 13 13 13 13 13
6 5 6 4 4 6 11 13 13 11 10 11 14 13 16 16 16 15 15 15 14 14 12 14 16 15 15 14 15 14 14 17 18 23 24 19 18 16 14 13 11 13 13 13 13
7 9 7 3 5 9 14 13 11 10 9 11 12 12 13 15 14 14 13 14 13 13 12 12 13 15 16 16 15 16 16 16 16 17 19 19 17 11 13 14 14 13 13 14 13
8 13 6 4 10 11 12 11 10 11 9 10 10 10 11 11 12 12 13 13 12 12 13 11 12 16 14 12 13 14 15 14 16 18 17 16 16 10 11 12 13 14 13 13 12
9 9 4 4 12 11 10 10 9 11 11 10 10 10 10 11 14 12 11 9 8 8 10 10 14 17 16 13 12 14 13 13 14 14 16 18 16 10 10 11 11 12 11 11 11
9 13 8 6 7 10 10 10 11 8 9 8 9 9 10 12 10 12 11 9 8 8 7 8 12 15 18 14 12 14 13 13 14 16 16 16 15 12 11 11 10 10 9 9 8
9 12 10 11 10 9 9 10 11 11 8 8 10 10 11 13 13 13 11 10 9 8 8 10 15 14 13 12 12 12 13 12 13 13 15 14 14 12 10 10 10 9 9 10 10
10 11 10 11 11 10 9 11 11 10 10 11 11 12 10 12 11 13 13 12 13 12 13 12 14 13 15 13 13 14 13 12 12 12 13 12 13 8 7 7 8 8 8 8 8
9 7 9 12 13 13 13 11 10 10 10 9 11 12 13 12 10 10 10 10 11 13 14 14 14 15 17 13 14 17 14 13 12 11 12 15 11 8 9 8 8 8 9 11 12